Hinckley, MN

2:12 PM CST on February 14, 2016 (GMT -0600)
Hinckley

Weather History for K04W - March, 2014

Change the Weather History Date:

Friday, March 7, 2014

  Actual Average Record
Temperature  
Mean Temperature 26 °F -  
Max Temperature 32 °F - - ()
Min Temperature 21 °F - - ()
Degree Days  
Heating Degree Days 38    
Moisture  
Dew Point 23 °F    
Average Humidity 86    
Maximum Humidity 100    
Minimum Humidity 69    
Precipitation  
Precipitation 0.04 in - - ()
Sea Level Pressure  
Sea Level Pressure 29.91 in    
Wind  
Wind Speed 9 mph (WNW)    
Max Wind Speed 15 mph    
Max Gust Speed 21 mph    
Visibility 7 miles    
Events Snow    
T = Trace of Precipitation, MM = Missing Value Source: NWS Daily Summary

Daily Weather History Graph

Daily Weather History Graph

Search for Another Location

Airport or City:

Trip Planner

Search our weather history database for the weather conditions in past years. The results will help you decide how hot, cold, wet, or windy it might be!

Date:

Astronomy

Mar. 07, 2014 Rise Set
Actual Time 6:39 AM CST 6:06 PM CST
Civil Twilight 6:09 AM CST 6:36 PM CST
Nautical Twilight 5:35 AM CST 7:11 PM CST
Astronomical Twilight 5:00 AM CST 7:46 PM CST
Moon 10:12 AM CST (3/7) 12:31 AM CST (3/7)
Length of Visible Light 12h 26m
Length of Day
11h 27m
Waxing Crescent, 42% of the Moon is Illuminated
Mar 7
Waxing Crescent
Mar 8
First Quarter
Mar 16
Full
Mar 23
Last Quarter
Mar 30
New

Hourly Weather History & Observations

Time (CST) Temp. Windchill Dew Point Humidity Pressure Visibility Wind Dir Wind Speed Gust Speed Precip Events Conditions
12:01 AM 26.6 °F 15.2 °F 21.2 °F 80% 29.72 in 10.0 mi SE 13.8 mph 19.6 mph N/A   Overcast
12:22 AM 26.6 °F 16.2 °F 21.2 °F 80% 29.78 in 10.0 mi South 11.5 mph - N/A   Overcast
12:41 AM 26.6 °F 16.2 °F 21.2 °F 80% 29.77 in 10.0 mi South 11.5 mph - N/A   Overcast
1:02 AM 26.6 °F 18.2 °F 21.2 °F 80% 29.77 in 10.0 mi South 8.1 mph - N/A   Overcast
1:21 AM 26.6 °F 18.2 °F 21.2 °F 80% 29.78 in 10.0 mi SSW 8.1 mph - N/A   Overcast
1:41 AM 26.6 °F 17.5 °F 21.2 °F 80% 29.79 in 10.0 mi SSW 9.2 mph - N/A   Overcast
2:02 AM 26.6 °F 19.1 °F 21.2 °F 80% 29.79 in 7.0 mi South 6.9 mph - N/A   Overcast
2:21 AM 26.6 °F 19.1 °F 21.2 °F 80% 29.78 in 7.0 mi South 6.9 mph - N/A   Overcast
2:42 AM 26.6 °F 19.1 °F 21.2 °F 80% 29.78 in 7.0 mi South 6.9 mph - N/A   Overcast
3:01 AM 26.6 °F 21.2 °F 23.0 °F 86% 29.77 in 7.0 mi South 4.6 mph - N/A   Overcast
3:22 AM 26.6 °F 21.2 °F 23.0 °F 86% 29.77 in 7.0 mi South 4.6 mph - N/A   Overcast
3:41 AM 26.6 °F 20.0 °F 23.0 °F 86% 29.76 in 7.0 mi South 5.8 mph - N/A   Overcast
4:01 AM 26.6 °F 20.0 °F 23.0 °F 86% 29.76 in 7.0 mi SSE 5.8 mph - N/A   Overcast
4:22 AM 26.6 °F 21.2 °F 23.0 °F 86% 29.76 in 5.0 mi South 4.6 mph - N/A   Overcast
4:41 AM 26.6 °F 22.6 °F 24.8 °F 93% 29.78 in 4.0 mi SSW 3.5 mph - N/A   Overcast
5:02 AM 26.6 °F 20.0 °F 24.8 °F 93% 29.77 in 4.0 mi South 5.8 mph - N/A   Overcast
5:21 AM 28.4 °F 21.2 °F 26.6 °F 93% 29.76 in 4.0 mi South 6.9 mph - N/A   Overcast
5:42 AM 28.4 °F 22.2 °F 26.6 °F 93% 29.77 in 2.5 mi SSW 5.8 mph - 0.03 in Snow Light Snow
6:01 AM 28.4 °F 23.3 °F 26.6 °F 93% 29.78 in 3.0 mi SW 4.6 mph - 0.01 in   Overcast
6:22 AM 28.4 °F 23.3 °F 26.6 °F 93% 29.77 in 4.0 mi SW 4.6 mph - 0.01 in   Overcast
6:42 AM 28.4 °F 24.6 °F 26.6 °F 93% 29.77 in 4.0 mi SW 3.5 mph - 0.01 in   Overcast
7:01 AM 28.4 °F - 26.6 °F 93% 29.76 in 3.0 mi Calm Calm - N/A   Overcast
7:22 AM 28.4 °F 24.6 °F 26.6 °F 93% 29.78 in 3.0 mi WSW 3.5 mph - N/A   Overcast
7:42 AM 28.4 °F 22.2 °F 26.6 °F 93% 29.79 in 3.0 mi WSW 5.8 mph - N/A   Overcast
8:02 AM 28.4 °F 23.3 °F 26.6 °F 93% 29.80 in 3.0 mi WSW 4.6 mph - N/A   Overcast
8:22 AM 28.4 °F 22.2 °F 26.6 °F 93% 29.80 in 2.0 mi SW 5.8 mph - N/A   Overcast
8:41 AM 28.4 °F 23.3 °F 28.4 °F 100% 29.80 in 1.8 mi SW 4.6 mph - N/A   Overcast
9:02 AM 28.4 °F 22.2 °F 28.4 °F 100% 29.81 in 1.2 mi WSW 5.8 mph - N/A   Overcast
9:21 AM 28.4 °F 23.3 °F 28.4 °F 100% 29.81 in 1.2 mi West 4.6 mph - N/A   Overcast
9:42 AM 30.2 °F - 28.4 °F 93% 29.81 in 1.0 mi Calm Calm - N/A   Overcast
10:02 AM 30.2 °F - 30.2 °F 100% 29.82 in 0.8 mi Calm Calm - N/A   Overcast
10:22 AM 32.0 °F 28.7 °F 30.2 °F 93% 29.83 in 1.0 mi WNW 3.5 mph - N/A   Overcast
10:42 AM 32.0 °F 26.4 °F 30.2 °F 93% 29.83 in 2.5 mi WNW 5.8 mph - N/A   Overcast
11:01 AM 32.0 °F 26.4 °F 30.2 °F 93% 29.85 in 4.0 mi WNW 5.8 mph - N/A   Overcast
11:22 AM 32.0 °F 24.2 °F 28.4 °F 87% 29.85 in 3.0 mi NW 9.2 mph - N/A   Overcast
11:41 AM 32.0 °F 24.2 °F 28.4 °F 87% 29.86 in 3.0 mi NW 9.2 mph - N/A   Overcast
12:02 PM 30.2 °F 20.2 °F 28.4 °F 93% 29.86 in 5.0 mi NW 12.7 mph 17.3 mph N/A   Overcast
12:22 PM 30.2 °F 19.8 °F 26.6 °F 86% 29.88 in 5.0 mi NW 13.8 mph - N/A   Overcast
12:42 PM 30.2 °F 21.3 °F 26.6 °F 86% 29.89 in 7.0 mi NW 10.4 mph - N/A   Overcast
1:02 PM 30.2 °F 19.8 °F 26.6 °F 86% 29.90 in 7.0 mi NW 13.8 mph 17.3 mph N/A   Overcast
1:21 PM 30.2 °F 22.6 °F 26.6 °F 86% 29.91 in 7.0 mi NW 8.1 mph - N/A   Overcast
1:42 PM 30.2 °F 21.3 °F 26.6 °F 86% 29.91 in 7.0 mi NW 10.4 mph - N/A   Overcast
2:02 PM 30.2 °F 21.9 °F 26.6 °F 86% 29.92 in 7.0 mi NW 9.2 mph - N/A   Overcast
2:22 PM 30.2 °F 21.3 °F 26.6 °F 86% 29.93 in 10.0 mi NNW 10.4 mph 19.6 mph N/A   Overcast
2:42 PM 28.4 °F 19.1 °F 26.6 °F 93% 29.93 in 10.0 mi NNW 10.4 mph - N/A   Overcast
3:01 PM 28.4 °F 18.5 °F 26.6 °F 93% 29.94 in 10.0 mi NNW 11.5 mph 17.3 mph N/A   Overcast
3:22 PM 28.4 °F 18.5 °F 26.6 °F 93% 29.95 in 10.0 mi NNW 11.5 mph 19.6 mph N/A   Overcast
3:42 PM 28.4 °F 17.5 °F 26.6 °F 93% 29.96 in 10.0 mi NW 13.8 mph 19.6 mph N/A   Overcast
4:02 PM 28.4 °F 17.5 °F 26.6 °F 93% 29.98 in 10.0 mi NW 13.8 mph - N/A   Overcast
4:22 PM 28.4 °F 17.5 °F 24.8 °F 86% 29.98 in 10.0 mi NNW 13.8 mph 19.6 mph N/A   Overcast
4:42 PM 28.4 °F 18.0 °F 24.8 °F 86% 29.99 in 10.0 mi NNW 12.7 mph 17.3 mph N/A   Overcast
5:02 PM 28.4 °F 17.0 °F 23.0 °F 80% 30.01 in 10.0 mi North 15.0 mph 19.6 mph N/A   Overcast
5:22 PM 28.4 °F 17.5 °F 23.0 °F 80% 30.02 in 10.0 mi NNW 13.8 mph 18.4 mph N/A   Overcast
5:42 PM 28.4 °F 17.5 °F 21.2 °F 74% 30.04 in 10.0 mi North 13.8 mph 19.6 mph N/A   Overcast
6:02 PM 28.4 °F 17.5 °F 19.4 °F 69% 30.06 in 10.0 mi North 13.8 mph - N/A   Overcast
6:22 PM 26.6 °F 14.7 °F 19.4 °F 74% 30.07 in 10.0 mi North 15.0 mph 20.7 mph N/A   Overcast
6:42 PM 26.6 °F 16.2 °F 19.4 °F 74% 30.08 in 10.0 mi North 11.5 mph 18.4 mph N/A   Overcast
7:02 PM 26.6 °F 16.8 °F 19.4 °F 74% 30.09 in 10.0 mi North 10.4 mph 16.1 mph N/A   Overcast
7:22 PM 26.6 °F 17.5 °F 19.4 °F 74% 30.11 in 10.0 mi North 9.2 mph - N/A   Overcast
7:42 PM 24.8 °F 16.9 °F 19.4 °F 80% 30.11 in 10.0 mi North 6.9 mph - N/A   Scattered Clouds
8:02 PM 23.0 °F 13.9 °F 17.6 °F 80% 30.12 in 10.0 mi North 8.1 mph - N/A   Clear
8:22 PM 23.0 °F 14.7 °F 17.6 °F 80% 30.13 in 10.0 mi North 6.9 mph - N/A   Scattered Clouds
8:42 PM 23.0 °F 14.7 °F 17.6 °F 80% 30.14 in 10.0 mi North 6.9 mph - N/A   Overcast
9:02 PM 23.0 °F 14.7 °F 17.6 °F 80% 30.15 in 10.0 mi North 6.9 mph - N/A   Overcast
9:22 PM 23.0 °F 14.7 °F 17.6 °F 80% 30.16 in 10.0 mi NNW 6.9 mph - N/A   Overcast
9:42 PM 23.0 °F 13.1 °F 17.6 °F 80% 30.16 in 10.0 mi North 9.2 mph - N/A   Overcast
10:02 PM 23.0 °F 13.1 °F 17.6 °F 80% 30.16 in 10.0 mi North 9.2 mph - N/A   Mostly Cloudy
10:23 PM 23.0 °F 13.9 °F 15.8 °F 74% 30.17 in 10.0 mi North 8.1 mph - N/A   Scattered Clouds
10:42 PM 21.2 °F 11.7 °F 15.8 °F 80% 30.18 in 10.0 mi North 8.1 mph - N/A   Clear
11:01 PM 21.2 °F 11.7 °F 14.0 °F 74% 30.18 in 10.0 mi North 8.1 mph - N/A   Clear
11:22 PM 21.2 °F 12.6 °F 14.0 °F 74% 30.18 in 10.0 mi North 6.9 mph - N/A   Clear
11:42 PM 21.2 °F 12.6 °F 14.0 °F 74% 30.19 in 10.0 mi North 6.9 mph - N/A   Clear